Terug naar catalogus

NAVSTAR 26

USA 83

ActiefNavigatieMEO
NORAD 22014·PAYLOAD·🇺🇸 United States

Gelanceerd Jul 7, 1992 vanaf Cape Canaveral Space Force Station

Loading…

Volgende Passages (komende 24 uur)

TLE

VersSource: Space-Track

Epoch: Sep 13, 2026, 21:57 UTC

1 22014U 92039A   26256.91483500  .00000008  00000-0  00000-0 0  9991
2 22014  55.5568 116.6943 0003728 299.6501  60.4062  1.87911739 76925

Volg NAVSTAR 26 in realtime met AllMySat

Download on the App Store